[[{"header":{"parameterUnit":"m.s-1","parameterCategory":1,"la1":30.2991,"la2":30.254,"lo1":-89.0895,"lo2":-89.0444,"dy":0.0017,"dx":0.0017,"nx":28,"ny":28,"refTime":"2024-06-11T09:00:00:Z","depth":0,"parameterNumber":2,"parameterNumberName":"U-component_of_WINDS"},"data":[0,0,0,0,0,0,0,0,0,0,0,0,0,0,0,0,0,0,0,0,0,0,0,0,0,0,0,0,0,0,0,0,0,0,0,0,0,0,0,0,0,0,0,0,0,0,0,0,0,0,0,0,0,0,0,0,0,0,-3.8454,-3.8454,0,-3.8433,-3.8433,-3.8433,-3.8359,-3.8358,-3.8356,-3.8355,-3.8335,-3.8336,-3.8337,0,0,0,0,0,0,0,0,0,0,0,0,0,-3.8432,-3.8433,-3.8454,-3.8454,-3.8454,-3.8434,-3.8433,-3.8433,-3.836,-3.8358,-3.8356,-3.8354,-3.8334,-3.8336,-3.8337,0,0,0,0,0,0,0,0,0,0,0,0,0,-3.8429,-3.8433,-3.8454,-3.8415,-3.8411,-3.8434,-3.8433,-3.8433,-3.836,-3.8358,-3.8355,-3.8353,-3.8334,-3.8335,-3.8337,-3.8397,0,0,-3.8342,-3.8342,0,0,0,0,0,0,0,0,-3.843,-3.843,-3.8421,-3.8417,-3.8413,-3.8396,-3.8418,-3.8421,-3.8361,-3.8379,-3.8354,-3.8352,-3.8357,-3.8357,-3.8358,-3.8396,-3.8395,-3.8342,-3.8343,-3.8343,-3.8344,0,0,0,0,0,0,0,-3.843,-3.8431,-3.8446,-3.8421,-3.8416,-3.8398,-3.8395,-3.8418,-3.8383,-3.8378,-3.8372,-3.8371,-3.8355,-3.8357,-3.8357,-3.8394,-3.8342,-3.8343,-3.8344,-3.8345,-3.848,-3.8483,0,0,0,0,0,0,-3.8435,-3.8431,-3.8447,-3.8445,-3.8415,-3.8401,-3.8397,-3.8404,-3.8382,-3.8376,-3.8373,-3.8367,-3.8356,-3.8356,-3.8356,-3.8425,-3.8343,-3.8345,-3.8346,-3.8478,-3.8481,-3.8484,0,0,0,0,0,0,-3.8435,-3.8438,-3.8447,-3.8437,-3.8437,-3.8404,-3.8412,-3.8405,-3.8407,-3.8379,-3.8372,-3.8382,-3.8354,-3.8354,-3.8387,-3.8424,-3.8346,-3.8347,-3.8475,-3.8479,-3.8483,-3.8564,0,0,0,0,0,0,-3.8435,-3.8438,-3.846,-3.8438,-3.8438,-3.8478,-3.8415,-3.8407,-3.841,-3.8403,-3.8385,-3.838,-3.8352,-3.8385,-3.8389,-3.8424,-3.8348,-3.8471,-3.8476,-3.8481,-3.8558,-3.857,-3.858,0,0,0,0,0,-3.8434,-3.8484,-3.8461,-3.8464,-3.8464,-3.8481,-3.848,-3.8447,-3.8413,-3.8436,-3.8417,-3.838,-3.8419,-3.8389,-3.8393,-3.8429,-3.8469,-3.8475,-3.8481,-3.8552,-3.8567,-3.858,0,0,0,0,0,0,-3.8511,-3.848,-3.8455,-3.8498,-3.8493,-3.8468,-3.8495,-3.8464,-3.8468,-3.8461,-3.8419,-3.8416,-3.8455,-3.8445,-3.8413,-3.8486,-3.8438,-3.8445,-3.8491,-3.8505,-3.8517,-3.8518,-3.8349,0,0,0,0,0,-3.8533,-3.8548,-3.852,-3.8561,-3.856,-3.8528,-3.8534,-3.8509,-3.8501,-3.8498,-3.8482,-3.8477,-3.8488,-3.8496,-3.8504,-3.8556,-3.8551,-3.8583,-3.8594,-3.8604,-3.861,-3.8638,-3.8651,-3.8504,-3.8504,-3.8504,0,0,-3.8578,-3.8563,-3.8575,-3.8576,-3.8569,-3.8586,-3.8527,-3.8547,-3.856,-3.8502,-3.8532,-3.852,-3.8511,-3.8554,-3.8572,-3.8547,-3.865,-3.8611,-3.8619,-3.8621,-3.8645,-3.8659,-3.8672,-3.8508,-3.8507,-3.8506,0,0,-3.867,-3.866,-3.8693,-3.8687,-3.8676,-3.8655,-3.8663,-3.8644,-3.8634,-3.8663,-3.862,-3.8635,-3.8654,-3.865,-3.865,-3.8742,-3.8708,-3.8745,-3.8806,-3.8833,-3.8844,-3.8855,-3.8888,-3.89,-3.8752,-3.8752,-3.8752,0,-3.8728,-3.8752,-3.8714,-3.8738,-3.874,-3.8688,-3.8722,-3.8718,-3.8711,-3.8714,-3.8686,-3.871,-3.87,-3.8742,-3.8764,-3.8766,-3.8775,-3.8747,-3.8846,-3.8855,-3.8864,-3.8896,-3.8908,-3.8757,-3.8756,-3.8756,-3.8756,0,-3.8824,-3.8841,-3.887,-3.8864,-3.8869,-3.8898,-3.8866,-3.8876,-3.885,-3.8832,-3.8864,-3.885,-3.8855,-3.8863,-3.8838,-3.8902,-3.8887,-3.8853,-3.8804,-3.8884,-3.8912,-3.8924,-3.8764,-3.8762,-3.8761,-3.8759,0,0,-3.8963,-3.8937,-3.8948,-3.8945,-3.893,-3.8943,-3.897,-3.8975,-3.8984,-3.8982,-3.9004,-3.9022,-3.8991,-3.8991,-3.8965,-3.8989,-3.9063,-3.8953,-3.8952,-3.8974,-3.9133,-3.9159,-3.9174,-3.9041,-3.9043,-3.9045,-3.9134,0,-3.9051,-3.9095,-3.9062,-3.9112,-3.9128,-3.9079,-3.9103,-3.9097,-3.9081,-3.9092,-3.9075,-3.9088,-3.9046,-3.9046,-3.9067,-3.905,-3.9095,-3.9043,-3.9062,-3.9063,-3.9066,-3.9188,-3.9216,-3.93,-3.9145,-3.9147,-3.9148,0,-3.9159,-3.9161,-3.9212,-3.9195,-3.92,-3.9222,-3.9224,-3.9236,-3.9228,-3.9215,-3.9216,-3.9184,-3.921,-3.9162,-3.9197,-3.9163,-3.9168,-3.9161,-3.9164,-3.9164,-3.9111,-3.9193,-3.9326,-3.934,-3.9165,-3.9164,-3.9163,0,-3.9256,-3.9272,-3.9305,-3.9304,-3.9284,-3.93,-3.9293,-3.9282,-3.9288,-3.929,-3.9293,-3.9298,-3.9301,-3.9306,-3.9277,-3.9244,-3.9317,-3.9266,-3.9307,-3.9308,-3.9325,-3.9325,-3.9462,-3.9328,-3.9328,-3.9328,-3.9328,0,-3.9358,-3.9391,-3.9348,-3.9369,-3.9405,-3.9368,-3.9405,-3.9393,-3.9384,-3.9402,-3.936,-3.9377,-3.9337,-3.9351,-3.9328,-3.9362,-3.9363,-3.9354,-3.9348,-3.9358,-3.9359,-3.9362,-3.9355,-3.9331,-3.9331,-3.933,-3.9329,0,-3.9473,-3.9445,-3.9478,-3.9456,-3.9452,-3.948,-3.9461,-3.948,-3.9461,-3.9484,-3.9487,-3.9458,-3.9472,-3.9444,-3.9454,-3.9439,-3.9486,-3.947,-3.9489,-3.9484,-3.9528,-3.9524,-3.9672,-3.969,-3.9544,-3.9546,-3.9547,0,-3.9539,-3.9564,-3.9546,-3.9554,-3.9549,-3.9563,-3.9569,-3.9533,-3.954,-3.9534,-3.9553,-3.9564,-3.957,-3.9595,-3.9575,-3.9583,-3.9567,-3.9619,-3.9568,-3.9578,-3.9569,-3.9568,-3.9571,-3.9629,-3.9631,-3.9632,-3.9634,0,-3.9662,-3.9647,-3.9656,-3.966,-3.9668,-3.9669,-3.9668,-3.9678,-3.964,-3.9651,-3.9664,-3.967,-3.968,-3.9691,-3.9695,-3.9687,-3.9655,-3.965,-3.966,-3.9671,-3.9681,-3.9677,-3.9518,-3.9646,-3.9645,-3.9644,-3.9644,-3.9643,-3.9755,-3.9775,-3.9765,-3.9777,-3.9772,-3.9772,-3.9789,-3.9772,-3.9783,-3.9788,-3.9767,-3.9786,-3.9778,-3.9779,-3.9775,-3.979,-3.9767,-3.9782,-3.9786,-3.979,-3.9797,-3.9678,-3.979,-3.979,-3.979,-3.9789,-3.9789,0,-3.9875,-3.9867,-3.9878,-3.9877,-3.9887,-3.9855,-3.9852,-3.9862,-3.988,-3.9875,-3.9882,-3.9899,-3.9909,-3.9891,-3.9899,-3.9914,-3.99,-3.9918,-3.9916,-3.9915,-3.9817,-3.9808,-3.9929,-3.9929,-3.9929,-3.9929,-3.9929,-3.9929,-3.9939,-3.9972,-3.9956,-3.9986,-3.9977,-3.9995,-3.9996,-3.9997,-3.9993,-4.0013,-4.0022,-4.0009,-3.9999,-4.0006,-4.0015,-4.0009,-4.0015,-4.0038,-4.0027,-3.9936,-3.9922,-3.9909,-3.99,-4.0039,-4.004,-4.0125,-4.0125,-4.0126]},{"header":{"parameterUnit":"m.s-1","parameterCategory":1,"la1":30.2991,"la2":30.254,"lo1":-89.0895,"lo2":-89.0444,"dy":0.0017,"dx":0.0017,"nx":28,"ny":28,"refTime":"2024-06-11T09:00:00:Z","depth":0,"parameterNumber":3,"parameterNumberName":"V-component_of_WINDS"},"data":[0,0,0,0,0,0,0,0,0,0,0,0,0,0,0,0,0,0,0,0,0,0,0,0,0,0,0,0,0,0,0,0,0,0,0,0,0,0,0,0,0,0,0,0,0,0,0,0,0,0,0,0,0,0,0,0,0,0,-2.2615,-2.2615,0,-2.2652,-2.2653,-2.2653,-2.2646,-2.2645,-2.2644,-2.2644,-2.268,-2.2681,-2.2683,0,0,0,0,0,0,0,0,0,0,0,0,0,-2.2534,-2.2535,-2.2615,-2.2615,-2.2616,-2.2652,-2.2653,-2.2653,-2.2646,-2.2645,-2.2644,-2.2643,-2.2679,-2.2681,-2.2683,0,0,0,0,0,0,0,0,0,0,0,0,0,-2.257,-2.2536,-2.2615,-2.2617,-2.2617,-2.2652,-2.2653,-2.2653,-2.2646,-2.2645,-2.2644,-2.2643,-2.2678,-2.2681,-2.2683,-2.2718,0,0,-2.269,-2.2691,0,0,0,0,0,0,0,0,-2.2568,-2.2573,-2.2616,-2.2617,-2.2617,-2.2643,-2.2637,-2.2675,-2.2646,-2.2635,-2.2644,-2.2642,-2.2668,-2.2671,-2.2681,-2.272,-2.2721,-2.2691,-2.2692,-2.2693,-2.2694,0,0,0,0,0,0,0,-2.2565,-2.2571,-2.263,-2.2616,-2.2617,-2.2614,-2.2618,-2.2644,-2.2657,-2.2636,-2.2635,-2.264,-2.2668,-2.2678,-2.2681,-2.2722,-2.2691,-2.2693,-2.2694,-2.2695,-2.2791,-2.2792,0,0,0,0,0,0,-2.2562,-2.2569,-2.2628,-2.2631,-2.2589,-2.2617,-2.2621,-2.2636,-2.2656,-2.2659,-2.2641,-2.264,-2.2675,-2.2679,-2.2683,-2.2725,-2.2693,-2.2695,-2.2697,-2.279,-2.2791,-2.2792,0,0,0,0,0,0,-2.2561,-2.2568,-2.2627,-2.26,-2.2607,-2.2619,-2.2636,-2.2637,-2.2647,-2.266,-2.2662,-2.2649,-2.2674,-2.2679,-2.2709,-2.2726,-2.2696,-2.2699,-2.2789,-2.279,-2.2792,-2.281,0,0,0,0,0,0,-2.2558,-2.2567,-2.2582,-2.26,-2.2609,-2.2654,-2.2637,-2.2639,-2.2652,-2.265,-2.2668,-2.267,-2.2674,-2.2706,-2.2712,-2.2729,-2.27,-2.2787,-2.2789,-2.2791,-2.2808,-2.2812,-2.2815,0,0,0,0,0,-2.2556,-2.2585,-2.2582,-2.259,-2.2627,-2.2655,-2.266,-2.2664,-2.2653,-2.2667,-2.2675,-2.267,-2.2723,-2.2709,-2.2716,-2.2734,-2.2786,-2.2789,-2.2791,-2.2806,-2.2811,-2.2815,0,0,0,0,0,0,-2.2567,-2.2587,-2.2585,-2.2621,-2.2637,-2.2654,-2.2672,-2.2669,-2.2687,-2.2685,-2.2688,-2.2692,-2.2723,-2.2731,-2.2715,-2.2768,-2.2753,-2.2757,-2.2762,-2.2767,-2.2771,-2.2768,-2.2702,0,0,0,0,0,-2.2574,-2.2597,-2.2612,-2.2643,-2.2651,-2.266,-2.2672,-2.2674,-2.269,-2.2696,-2.2706,-2.2721,-2.2741,-2.2754,-2.2773,-2.2808,-2.2812,-2.2824,-2.2828,-2.2831,-2.2834,-2.2853,-2.2858,-2.2801,-2.2801,-2.2801,0,0,-2.2589,-2.2602,-2.2616,-2.2646,-2.2658,-2.268,-2.2666,-2.269,-2.2706,-2.2699,-2.2729,-2.2737,-2.2753,-2.2786,-2.2801,-2.2794,-2.2851,-2.2834,-2.2836,-2.2838,-2.2856,-2.2862,-2.2866,-2.2802,-2.2802,-2.2802,0,0,-2.2626,-2.2639,-2.2666,-2.2678,-2.2697,-2.2703,-2.2709,-2.2726,-2.2732,-2.2761,-2.2757,-2.2775,-2.281,-2.2822,-2.2832,-2.2873,-2.2869,-2.2879,-2.2899,-2.2917,-2.2922,-2.2926,-2.294,-2.2945,-2.2882,-2.2882,-2.2882,0,-2.2642,-2.2676,-2.268,-2.2704,-2.2717,-2.2712,-2.2739,-2.275,-2.2774,-2.2782,-2.2774,-2.2817,-2.2827,-2.2863,-2.2873,-2.2881,-2.2888,-2.2877,-2.2921,-2.2925,-2.2929,-2.2943,-2.2948,-2.2883,-2.2883,-2.2883,-2.2883,0,-2.2694,-2.2717,-2.2736,-2.276,-2.2775,-2.28,-2.2807,-2.2821,-2.282,-2.2827,-2.2856,-2.2869,-2.289,-2.2898,-2.2898,-2.2933,-2.2928,-2.292,-2.2905,-2.2935,-2.2949,-2.2954,-2.2885,-2.2885,-2.2884,-2.2884,0,0,-2.2742,-2.2766,-2.2773,-2.2784,-2.2803,-2.2821,-2.2845,-2.2867,-2.2879,-2.2895,-2.2915,-2.2943,-2.2936,-2.2948,-2.2949,-2.2965,-2.2996,-2.2955,-2.2955,-2.2962,-2.3035,-2.3041,-2.3047,-2.2993,-2.2994,-2.2994,-2.3034,0,-2.2781,-2.2826,-2.2829,-2.2869,-2.289,-2.2885,-2.2906,-2.292,-2.2926,-2.2944,-2.295,-2.2971,-2.2959,-2.2966,-2.2982,-2.2989,-2.3011,-2.2986,-2.3011,-2.3012,-2.3008,-2.3054,-2.3061,-2.3098,-2.3039,-2.304,-2.304,0,-2.2834,-2.2853,-2.2895,-2.291,-2.2919,-2.2939,-2.2958,-2.2976,-2.299,-2.2993,-2.3006,-2.3005,-2.3028,-2.3012,-2.3044,-2.3027,-2.3037,-2.3042,-2.3044,-2.3047,-2.3028,-2.3059,-2.3109,-2.3115,-2.3048,-2.3048,-2.3047,0,-2.2865,-2.29,-2.2929,-2.2938,-2.2958,-2.2971,-2.2979,-2.2993,-2.3006,-2.3022,-2.303,-2.3049,-2.3059,-2.3073,-2.3076,-2.3064,-2.3108,-2.3092,-2.3111,-2.3111,-2.3122,-2.3121,-2.3175,-2.3127,-2.3127,-2.3127,-2.3127,0,-2.291,-2.2936,-2.2943,-2.2962,-2.299,-2.2993,-2.302,-2.3028,-2.304,-2.3058,-2.3055,-2.3072,-2.3075,-2.3092,-2.3095,-2.3121,-2.3126,-2.3128,-2.3129,-2.3129,-2.3129,-2.3136,-2.3134,-2.3129,-2.3128,-2.3128,-2.3128,0,-2.295,-2.2956,-2.2988,-2.3003,-2.3008,-2.3028,-2.3041,-2.3057,-2.3062,-2.3086,-2.3092,-2.3099,-2.312,-2.3124,-2.3148,-2.3149,-2.3181,-2.3178,-2.3176,-2.3176,-2.3195,-2.3194,-2.3257,-2.3265,-2.3211,-2.3212,-2.3212,0,-2.2978,-2.2998,-2.3016,-2.3028,-2.3038,-2.3058,-2.3071,-2.3073,-2.3086,-2.3104,-2.3118,-2.3139,-2.3155,-2.3188,-2.3195,-2.3213,-2.3211,-2.3232,-2.3214,-2.3214,-2.3212,-2.3211,-2.3213,-2.3236,-2.3236,-2.3237,-2.3237,0,-2.3028,-2.303,-2.3049,-2.3069,-2.3084,-2.31,-2.3114,-2.3124,-2.3129,-2.3143,-2.3165,-2.3177,-2.3202,-2.3222,-2.324,-2.3247,-2.3243,-2.3243,-2.3248,-2.3249,-2.3247,-2.3249,-2.3186,-2.3241,-2.3241,-2.3241,-2.324,-2.324,-2.3063,-2.3081,-2.3096,-2.3117,-2.3128,-2.3141,-2.3158,-2.3165,-2.3183,-2.3204,-2.3204,-2.3227,-2.324,-2.3263,-2.3272,-2.3289,-2.3283,-2.329,-2.3293,-2.3295,-2.3296,-2.3244,-2.3292,-2.3292,-2.3292,-2.3292,-2.3292,0,-2.3113,-2.3123,-2.3142,-2.3163,-2.3179,-2.3173,-2.3189,-2.3202,-2.3223,-2.3236,-2.3252,-2.3276,-2.3295,-2.3303,-2.3321,-2.3334,-2.3332,-2.3338,-2.3338,-2.334,-2.3301,-2.3295,-2.3339,-2.3339,-2.3339,-2.3339,-2.3339,-2.3339,-2.3142,-2.317,-2.3174,-2.3208,-2.3216,-2.3239,-2.3249,-2.3261,-2.3271,-2.3298,-2.3314,-2.3319,-2.333,-2.3349,-2.3366,-2.3367,-2.3374,-2.3382,-2.3383,-2.3347,-2.3342,-2.3338,-2.3332,-2.3383,-2.3383,-2.3419,-2.342,-2.342]}]]